Location: Brienzwiler
(46.7508°N, 8.1014°E)
Time: 08:01:30
(UTC+00:00)

Cosmos 2221 - Pass Details

Date: 05 July 2020
Orbit: 592 x 616 km, 82.5° (Epoch: 06 August)

Event Time Altitude Azimuth Distance (km) Brightness Sun altitude
Rises 22:31:15 0° 339° (NNW) 2,895 7.6 -19.2°
Reaches altitude 10° 22:33:46 10° 327° (NNW) 1,982 6.2 -19.3°
Maximum altitude 22:37:21 25° 272° (W) 1,247 4.2 -19.5°
Enters shadow 22:39:20 18° 233° (SW) 1,507 4.3 -19.6°
